Regional Weather Roundup
Issued by NWS Grand Forks, ND

Home | Current Version | Previous Version | Graphics & Text | Print | Product List | Glossary On
Versions: 1 2 3 4 5 6 7 8 9 10 11 12 13 14 15 16 17 18 19 20 21 22 23 24 25 26 27 28 29 30 31 32 33 34 35 36 37 38 39 40 41 42 43 44 45 46 47 48 49 50
000
ASUS43 KFGF 170210
RWRFGF
PRAIRIE TO PINES  WEATHER ROUNDUP
NATIONAL WEATHER SERVICE EASTERN NORTH DAKOTA/GRAND FORKS ND
900 PM CDT WED APR 16 2014

 **SATELLITE DATA USED TO AUGMENT SKY COVER AT AUTOMATED STATIONS**
 *****  WEATHER ACROSS EASTERN NORTH DAKOTA  *****

CITY           SKY/WX    TMP DP  RH WIND       PRES   REMARKS
GRAND FORKS    CLEAR     32  13  45 NE12      30.21R WCI  23
GRAND FRKS AFB CLEAR     30  14  50 NE8       30.26R WCI  23
GRAND FRKS NWS   N/A     32 N/A N/A NE10        N/A  WCI  24
DEVILS LAKE    CLEAR     28  10  47 NE14      30.26R WCI  17
FARGO          CLEAR     34  19  54 N8        30.19R
WAHPETON ARPT  PTCLDY    30  21  69 NE5       30.18R
$$

 ***** WEATHER ACROSS CENTRAL AND WESTERN NORTH DAKOTA  *****

CITY           SKY/WX    TMP DP  RH WIND       PRES   REMARKS
BISMARCK       CLOUDY    34  15  46 NE8       30.22R
MINOT          CLOUDY    31  17  56 NE10      30.26R WCI  22
JAMESTOWN      CLEAR     31  18  58 N13       30.20R WCI  21
MINOT AFB      CLOUDY    30  18  62 E9        30.26R WCI  21
GARRISON         N/A     32  17  54 NE6       30.23R
WILLISTON        N/A    N/A N/A N/A MISG      30.25R
DICKINSON      CLOUDY    27  19  72 E9        30.17R WCI  18
HETTINGER      CLOUDY    29  22  75 NE10      30.18R WCI  20
$$

 *****  OTHER AIRPORT OBSERVATIONS IN OUR AREA  *****

CITY           SKY/WX    TMP DP  RH WIND       PRES   REMARKS
WALHALLA         N/A     28  14  54 N12       30.32R WCI  18
GRAFTON AIRPOR FAIR      30  18  59 N16G23    30.28R WCI  19
VALLEY CITY AR NOT AVBL
CANDO          FAIR      27  12  54 NE9G16    30.30R WCI  17
CAVALIER APRT  FAIR      28  16  59 N14G20    30.31R WCI  17
GWINNER        CLEAR     30  23  74 N7        30.18R WCI  23
ROLLA          FAIR      25  14  63 NE14      30.30R WCI  13
 ***** THE ABOVE OBSERVATIONS ARE NON NWS ARE NOT QUALITY
       CONTROLLED AND MAY MIS-REPORT RAIN FOR SNOW...
$$

  *****  WEATHER ACROSS NORTHERN MINNESOTA  *****

CITY           SKY/WX    TMP DP  RH WIND       PRES   REMARKS
FLAG ISLAND    CLEAR     28  10  47 N9        30.27R WCI  20
WARROAD        CLEAR     28  12  50 N7        30.28R WCI  21
ROSEAU         CLEAR     28  16  59 NE7       30.27R WCI  21
HALLOCK        CLOUDY    30  18  59 N12       30.29R WCI  21
THF RVR FALLS  CLEAR     30   9  40 N13       30.24R WCI  20
BAUDETTE       CLEAR     30   9  41 N8        30.25R WCI  22
WASKISH        CLEAR     30   7  37 NE8       30.22R WCI  23
CROOKSTON      CLEAR     32  16  51 NE10      30.25R WCI  24
$$
  *****  WEATHER ACROSS CENTRAL AND WEST MINNESOTA  *****

CITY           SKY/WX    TMP DP  RH WIND       PRES   REMARKS
FOSSTON        CLEAR     30   9  40 NE9       30.20R WCI  22
BEMIDJI        CLEAR     28  17  64 E5        30.17R WCI  22
PARK RAPIDS    PTCLDY    28  20  71 NE9       30.15R WCI  19
ELBOW LAKE     CLOUDY    29  22  75 NE12G18   30.13R WCI  20
WADENA         CLOUDY    27  19  74 NE17G25   30.13R WCI  14
DETROIT LAKES  CLEAR     32  21  64 NE7       30.16R
MOORHEAD       CLEAR     32  28  86 N5        30.20R
FERGUS FALLS   PTCLDY    30  19  64 NE8       30.14R WCI  23
MORRIS MN      PTCLDY    30  23  74 N20       30.11R WCI  18
STAPLES        CLOUDY    27  21  80 NE14G20   30.12R WCI  15
$$
  *****  WEATHER ELSEWHERE ACROSS MINNESOTA  *****

CITY           SKY/WX    TMP DP  RH WIND       PRES   REMARKS
DULUTH         LGT SNOW  26  22  84 NE21G30   30.13R VSB 3/4 WCI  12
INTRNTL FALLS  CLEAR     30   8  39 NE5       30.23R
ELY            CLOUDY    25  19  80 E7        30.22S WCI  17
CLOQUET        LGT SNOW  27  23  86 NE17G26   30.12R WCI  14
WHEATON        MOCLDY    34  25  69 N12       30.18R
BRAINERD       CLOUDY    31  21  66 NE18G26   30.12R WCI  19
HIBBING        LGT SNOW  26  20  77 NE12      30.19R WCI  16
ALEXANDRIA     CLOUDY    28  21  75 NE16G23   30.09R WCI  16
SAINT CLOUD    LGT SNOW  29  25  85 N13G24    30.02R FOG     WCI  19
MINNEAPOLIS    LGT RAIN  32  32 100 N10       29.92R FOG     WCI  24
$$

  *****  WEATHER ACROSS SOUTH DAKOTA  *****

CITY           SKY/WX    TMP DP  RH WIND       PRES   REMARKS
SIOUX FALLS    CLOUDY    30  27  88 N22G31    30.04R WCI  17
BROOKINGS      NOT AVBL
WATERTOWN      CLOUDY    28  23  81 N23       30.08R WCI  14
HURON          CLOUDY    32  24  72 N14       30.14R WCI  22
SISSETON         N/A     28  22  78 NE9       30.15R WCI  19
ABERDEEN       CLEAR     26  21  81 N7        30.17R WCI  18
MITCHELL       CLOUDY    33  25  72 N18G26    30.13R WCI  22
PIERRE         CLOUDY    35  23  61 NE15      30.16R
MOBRIDGE       PTCLDY    26  17  68 NE7       30.17R WCI  18
RAPID CITY     CLOUDY    33  25  72 E9        30.11R
$$

  *****  SOME WEATHER IN NEARBY STATES *****

CITY           SKY/WX    TMP DP  RH WIND       PRES   REMARKS
GLASGOW MT     CLOUDY    32  19  58 E16       30.16R WCI  21
GREAT FALLS MT CLOUDY    40  33  76 E12       29.97F
CHEYENNE WY    PTCLDY    37  27  67 CALM      30.03R
SCOTTSBLUFF NE PTCLDY    42  30  62 NE12      30.03R
OMAHA NE       CLOUDY    39  31  72 NW25G35   29.98R
DES MOINES IA  LGT RAIN  52  35  52 NW17      29.85R
DAVENPORT IA   CLOUDY    50  27  40 SE21      30.01S
CHICAGO IL     CLOUDY    47  23  38 SE22      30.13S
EAU CLAIRE WI  CLOUDY    41  32  70 NE12      29.94R
LA CROSSE WI   CLOUDY    52  28  39 SE21G28   29.90S
$$

  *****  SOME NATIONAL WEATHER *****

CITY           SKY/WX    TMP DP  RH WIND       PRES   REMARKS
LA GUARDIA NY  PTCLDY    42  18  37 NE15      30.54R
RALEIGH NC     CLEAR     41  28  60 E5        30.44R
ATLANTA GA     PTCLDY    52  29  41 E10       30.27R
NEW ORLEANS LA PTCLDY    55  45  68 SE8       30.15R
OKLAHOMA CITY  MOCLDY    57  33  40 SE12      29.96R
ALBUQUERQUE NM CLOUDY    66  14  13 N18G25    29.88R
SALT LAKE CITY PTCLDY    51  15  23 W6        29.99S
LOS ANGELES CA PTCLDY    60  52  74 W10       29.81R
BOISE ID       CLEAR     57  20  23 NW9       29.97F
SEATTLE WA     CLOUDY    51  49  92 S10       30.01F
$$

*** WEATHER ACROSS MANITOBA...SASKATCHEWAN AND ONTARIO ***
                ***ONTARIO***

CITY           SKY/WX    TMP DP  RH WIND       PRES   REMARKS
GERALDTON      PTCLDY    23   1  39 CALM      30.35R
THUNDER BAY    NOT AVBL
SIOUX LOOKOUT  CLEAR     23   0  36 N2        30.30R
TORONTO        PTCLDY    34  21  60 S3        30.54R
BIG TROUT LK   CLEAR      9  -4  56 W3        30.37R
PICKLE LAKE    CLEAR     21   0  39 NE5       30.34R WCI  15
DRYDEN         CLEAR     25   0  33 NE6       30.29R WCI  18
KENORA         PTCLDY    27   0  31 NE5       30.29R WCI  21
$$
                *** MANITOBA***

CITY           SKY/WX    TMP DP  RH WIND       PRES   REMARKS
BRANDON        PTCLDY    23  12  63 E7        30.36S WCI  15
DAUPHIN        CLEAR     25  14  63 N7        30.40R WCI  17
ISLAND LAKE    CLEAR     19   3  49 CALM      30.40R
PILOT MOUND      N/A     23  10  58 N10         N/A  WCI  12
THE PAS        PTCLDY    23   5  46 SE5       30.42R WCI  17
THOMPSON       CLEAR     19   5  53 NW5       30.39S WCI  13
WINNIPEG       CLEAR     25  10  54 N12       30.36R WCI  14
LYNN LAKE      CLEAR     18  -6  35 NW5       30.36F WCI  11
CHURCHILL      MOCLDY    14   3  62 W12       30.25F WCI   0
GILLAM         PTCLDY    18   5  57 SW8       30.36S WCI   7
$$
                ***SASKATCHEWAN***

CITY           SKY/WX    TMP DP  RH WIND       PRES   REMARKS
ESTEVAN        PTCLDY    25  18  74 E6        30.28R WCI  18
KINDERSLEY     MOCLDY    27  21  80 E18       30.14F WCI  13
LLOYDMINSTER   FLURRIES  27  23  86 SE15      30.17S WCI  15
PRINCE ALBERT  PTCLDY    23   9  54 SE7       30.33F WCI  15
REGINA         FLURRIES  28  19  69 SE9       30.27S WCI  20
YORKTON        CLEAR     25  12  58 SE7       30.34R WCI  17
N. BATTLEFORD  FLURRIES  28  23  80 SE16      30.25S WCI  17
LA RONGE       CLEAR     25   1  36 NE5       30.34F WCI  19
SASKATOON      FLURRIES  28  21  74 S10G20    30.28S WCI  19
SWIFT CURRENT  FLURRIES  27  21  80 SE15G22   30.13S WCI  15
$$
NOTE: THESE ARE AUTOMATED STATIONS WITH LIMITED QUALITY CONTROL
      "FAIR" INDICATES FEW OR NO CLOUDS BELOW 12,000 FEET WITH NO
      SIGNIFICANT WEATHER AND/OR OBSTRUCTIONS TO VISIBILITY.
      SKY/WX - SKY CONDITION AND SIGNIFICANT WEATHER.
      TMP - AIR TEMPERATURE.    DP   - DEWPOINT TEMPERATURE.
      RH  - RELATIVE HUMIDITY.  PRES - PRESSURE.
      HX  - HEAT INDEX.         WCI  - WIND CHILL INDEX.
$



USA.gov is the U.S. government's official web portal to all federal, state and local government web resources and services.